1513796400.61,41767,6.88,73410.5,-15.13,-16.41,-16.17,0,*66
1513796401.9,41768,6.81,73416.3,-15.13,-16.27,-16.27,0,*6A
1513796403.19,41769,6.81,73430.5,-15.13,-16.31,-16.27,0,*6C
1513796404.49,41770,6.81,73428.3,-15.13,-16.27,-16.17,0,*60
1513796405.78,41771,6.81,73424.3,-15.13,-16.27,-16.13,0,*65
1513796407.05,41772,6.81,73426.8,-15.15,-16.23,-16.09,0,*6F
1513796408.35,41773,6.81,73424.5,-15.13,-16.13,-16.17,0,*64
1513796409.62,41774,6.81,73426.5,-15.13,-16.13,-15.99,0,*66
1513796410.87,41775,6.81,73420.5,-15.15,-16.09,-16.03,0,*6A
1513796412.11,41776,6.88,73424.5,-15.13,-16.03,-15.99,0,*65
1513796413.35,41777,6.88,73414.3,-15.13,-16.03,-15.99,0,*64
1513796414.58,41778,6.81,73408.3,-15.13,-15.99,-15.99,0,*6B
1513796415.85,41779,6.88,73422.0,-15.13,-16.13,-15.99,0,*6B
1513796417.1,41780,6.81,73420.3,-15.13,-16.03,-15.95,0,*60
1513796418.34,41781,6.88,73412.0,-15.13,-16.03,-15.99,0,*6D
1513796419.58,41782,6.81,73410.0,-15.15,-16.09,-16.03,0,*62
1513796420.83,41783,6.81,73404.5,-15.13,-16.03,-15.95,0,*63
1513796422.07,41784,6.88,73404.8,-15.15,-15.95,-15.85,0,*6F
1513796423.28,41785,6.81,73408.3,-15.15,-15.99,-15.99,0,*6F
1513796424.49,41786,6.88,73412.3,-15.15,-15.99,-15.95,0,*60
1513796425.73,41787,6.81,73412.0,-15.13,-15.95,-15.99,0,*67
1513796426.94,41788,6.88,73416.5,-15.15,-15.99,-15.95,0,*6E
1513796428.19,41789,6.88,73408.3,-15.13,-15.95,-15.99,0,*69
1513796429.46,41790,6.88,73406.0,-15.13,-15.95,-15.85,0,*6C
1513796430.67,41791,6.81,73404.8,-15.15,-16.03,-15.99,0,*6A
1513796431.91,41792,6.81,73412.8,-15.13,-15.99,-15.95,0,*63
1513796433.12,41793,6.81,73404.8,-15.15,-16.03,-15.99,0,*68
1513796434.34,41794,6.81,73408.3,-15.15,-16.03,-15.99,0,*6F
1513796435.55,41795,6.88,73416.0,-15.15,-16.03,-15.99,0,*6E
1513796436.78,41796,6.81,73420.3,-15.13,-15.99,-15.99,0,*6B
1513796438.02,41797,6.81,73384.3,-15.13,-15.99,-15.99,0,*6A
1513796439.25,41798,6.88,73414.3,-15.13,-15.99,-15.99,0,*65
1513796440.49,41799,6.81,73400.3,-15.13,-15.99,-15.95,0,*68
1513796441.73,41800,6.88,73398.5,-15.13,-15.99,-15.99,0,*6B
1513796443.0,41801,6.81,73388.5,-15.13,-16.13,-16.03,0,*6B
1513796444.21,41802,6.88,73416.0,-15.15,-16.03,-15.99,0,*6F
1513796445.45,41803,6.81,73430.5,-15.15,-16.17,-16.03,0,*6B
1513796446.67,41804,6.81,73412.8,-15.15,-16.03,-15.99,0,*69
1513796447.91,41805,6.81,73400.5,-15.13,-15.99,-15.95,0,*62
1513796449.12,41806,6.81,73414.0,-15.15,-16.03,-15.99,0,*6B
1513796450.33,41807,6.81,73400.5,-15.15,-15.99,-15.99,0,*6A
1513796451.57,41808,6.81,73396.8,-15.13,-16.03,-15.99,0,*63
1513796452.84,41809,6.88,73376.0,-15.15,-16.17,-16.13,0,*60
1513796454.11,41810,6.81,73410.5,-15.15,-16.23,-16.09,0,*64
1513796455.38,41811,6.81,73408.0,-15.15,-16.09,-16.09,0,*6D
1513796456.66,41812,6.81,73406.5,-15.15,-16.09,-16.09,0,*6E
1513796457.9,41813,6.81,73402.5,-15.13,-16.03,-15.99,0,*69
1513796459.14,41814,6.88,73392.0,-15.13,-16.03,-15.99,0,*6E
1513796460.38,41815,6.81,73394.3,-15.13,-16.03,-15.95,0,*63
1513796461.63,41816,6.81,73396.3,-15.15,-16.17,-16.03,0,*6F
1513796462.87,41817,6.81,73408.8,-15.13,-16.03,-15.95,0,*61
1513796464.11,41818,6.81,73408.0,-15.15,-16.09,-15.99,0,*6E
1513796465.35,41819,6.81,73382.3,-15.13,-15.99,-15.95,0,*6F
1513796466.57,41820,6.88,73406.0,-15.15,-15.99,-15.95,0,*63
1513796467.81,41821,6.81,73392.5,-15.13,-15.95,-15.95,0,*68
1513796469.02,41822,6.81,73378.0,-15.15,-15.99,-15.95,0,*61
1513796470.23,41823,6.81,73388.3,-15.15,-15.99,-16.03,0,*6C
1513796471.47,41824,6.81,73378.5,-15.13,-15.99,-15.95,0,*61
1513796472.71,41825,6.81,73376.8,-15.15,-15.89,-16.03,0,*6B
1513796473.95,41826,6.81,73392.5,-15.13,-15.99,-15.95,0,*63
1513796475.16,41827,6.81,73390.0,-15.15,-15.99,-15.99,0,*68
1513796476.37,41828,6.81,73386.8,-15.15,-16.03,-16.03,0,*67
1513796477.62,41829,6.81,73388.5,-15.15,-16.09,-15.99,0,*6C
1513796478.83,41830,6.81,73386.8,-15.15,-16.03,-15.99,0,*6E
1513796480.08,41831,6.88,73392.0,-15.13,-15.95,-15.95,0,*69
1513796481.32,41832,6.81,73394.5,-15.15,-16.03,-15.89,0,*6D
1513796482.55,41833,6.81,73388.3,-15.13,-15.99,-15.99,0,*6B
1513796483.79,41834,6.88,73398.8,-15.13,-16.03,-15.99,0,*6C
1513796485.03,41835,6.88,73394.5,-15.13,-16.03,-15.99,0,*6D
1513796486.27,41836,6.81,73398.0,-15.13,-16.03,-15.99,0,*6E
1513796487.51,41837,6.81,73394.3,-15.13,-16.03,-15.99,0,*6F
1513796488.75,41838,6.88,73402.3,-15.13,-16.03,-15.99,0,*60
1513796490.0,41839,6.88,73408.5,-15.15,-16.09,-16.03,0,*6D
1513796491.24,41840,6.81,73410.5,-15.13,-15.99,-15.95,0,*63
1513796492.48,41841,6.81,73402.3,-15.13,-15.99,-15.95,0,*62
1513796493.71,41842,6.81,73400.0,-15.13,-15.99,-15.99,0,*6D
1513796494.98,41843,6.81,73402.5,-15.13,-16.13,-15.99,0,*6D
1513796496.22,41844,6.81,73406.8,-15.13,-16.03,-15.99,0,*6B
1513796497.43,41845,6.81,73400.5,-15.15,-15.99,-15.99,0,*6C
1513796498.65,41846,6.81,73408.0,-15.15,-16.03,-16.03,0,*6F
1513796499.89,41847,6.81,73404.3,-15.13,-15.95,-15.99,0,*64
1513796501.13,41848,6.81,73408.3,-15.13,-16.03,-15.99,0,*67
1513796502.36,41849,6.81,73408.5,-15.13,-15.99,-15.99,0,*66
1513796503.6,41850,6.81,73412.3,-15.09,-15.99,-15.99,0,*65
1513796504.84,41851,6.81,73420.5,-15.09,-16.03,-15.99,0,*64
1513796506.08,41852,6.81,73418.3,-15.15,-16.09,-15.99,0,*60
1513796507.32,41853,6.81,73408.8,-15.13,-16.03,-15.99,0,*6D
1513796508.56,41854,6.81,73410.8,-15.13,-16.03,-15.99,0,*6A
1513796509.8,41855,6.81,73406.3,-15.09,-16.03,-15.99,0,*60
1513796511.04,41856,6.88,73414.5,-15.09,-15.99,-15.99,0,*63
1513796512.28,41857,6.81,73418.8,-15.13,-15.99,-15.95,0,*65
1513796513.51,41858,6.81,73418.3,-15.13,-15.99,-15.99,0,*66
1513796514.78,41859,6.81,73418.0,-15.09,-15.95,-15.81,0,*69
1513796516.05,41860,6.81,73416.0,-15.09,-15.95,-15.85,0,*67
1513796517.32,41861,6.81,73418.8,-15.09,-15.99,-15.85,0,*6A
1513796518.58,41862,6.81,73412.0,-15.09,-15.95,-15.85,0,*65
1513796519.85,41863,6.81,73412.8,-15.09,-15.99,-15.85,0,*68
1513796521.09,41864,6.81,73430.8,-15.09,-15.99,-15.95,0,*6E
1513796522.36,41865,6.88,73426.8,-15.09,-15.95,-15.85,0,*62
1513796523.62,41866,6.81,73418.0,-15.13,-15.99,-15.81,0,*62
1513796524.89,41867,6.81,73400.0,-15.13,-15.95,-15.85,0,*6B
1513796526.13,41868,6.81,73410.3,-15.13,-16.03,-15.99,0,*65
1513796527.37,41869,6.81,73400.5,-15.13,-15.99,-15.95,0,*68
1513796528.61,41870,6.81,73402.5,-15.13,-15.99,-15.95,0,*60
1513796529.85,41871,6.81,73408.8,-15.13,-15.99,-15.95,0,*61
1513796531.08,41872,6.88,73410.0,-15.13,-15.99,-15.99,0,*6E
1513796532.32,41873,6.81,73416.3,-15.09,-15.99,-15.99,0,*64
1513796533.55,41874,6.81,73418.3,-15.09,-15.99,-15.99,0,*63
1513796534.79,41875,6.81,73412.0,-15.13,-15.99,-15.95,0,*65
1513796536.03,41876,6.81,73414.5,-15.09,-16.03,-15.99,0,*61
1513796537.27,41877,6.81,73418.0,-15.09,-16.03,-15.99,0,*60
1513796538.51,41878,6.81,73412.5,-15.13,-16.03,-15.99,0,*64
1513796539.74,41879,6.81,73404.3,-15.13,-15.99,-15.99,0,*65
1513796540.98,41880,6.81,73410.5,-15.13,-15.99,-15.99,0,*63
1513796542.22,41881,6.81,73408.3,-15.13,-16.03,-15.99,0,*62
1513796543.46,41882,6.88,73408.0,-15.13,-16.03,-15.99,0,*61
1513796544.7,41883,6.81,73412.5,-15.13,-16.03,-15.99,0,*60
1513796545.97,41884,6.81,73410.3,-15.13,-16.03,-15.85,0,*6A
1513796547.21,41885,6.88,73410.0,-15.13,-16.03,-15.99,0,*66
1513796548.45,41886,6.81,73408.5,-15.13,-15.99,-15.95,0,*69
1513796549.71,41887,6.88,73408.8,-15.13,-15.99,-15.85,0,*69
1513796550.98,41888,6.88,73414.5,-15.13,-15.95,-15.81,0,*6E
1513796552.23,41889,6.81,73408.8,-15.13,-15.95,-15.95,0,*6A
1513796553.5,41890,6.81,73408.0,-15.09,-15.95,-15.85,0,*68
1513796554.8,41891,6.81,73412.0,-15.09,-15.85,-15.81,0,*6C
1513796556.07,41892,6.88,73412.3,-15.13,-15.95,-15.81,0,*65
1513796557.34,41893,6.81,73398.3,-15.13,-15.95,-15.81,0,*64
1513796558.61,41894,6.81,73402.8,-15.13,-15.95,-15.85,0,*67
1513796559.88,41895,6.88,73408.0,-15.09,-15.95,-15.85,0,*6D
1513796561.12,41896,6.81,73384.8,-15.09,-15.99,-15.95,0,*63
1513796562.36,41897,6.81,73390.8,-15.09,-15.99,-15.95,0,*62
1513796563.59,41898,6.88,73394.3,-15.09,-15.99,-15.99,0,*61
1513796564.83,41899,6.81,73394.5,-15.09,-15.99,-15.95,0,*6C
1513796566.09,41900,6.81,73404.5,-15.09,-15.99,-15.85,0,*6C
1513796567.39,41901,6.81,73404.3,-15.09,-15.85,-15.85,0,*60
1513796568.65,41902,6.81,73408.8,-15.09,-15.99,-15.85,0,*6E
1513796569.92,41903,6.81,73396.0,-15.09,-15.95,-15.85,0,*63
1513796571.19,41904,6.81,73402.3,-15.09,-15.95,-15.81,0,*60
1513796572.43,41905,6.88,73410.5,-15.07,-15.99,-15.81,0,*63
1513796573.69,41906,6.81,73402.5,-15.09,-15.99,-15.85,0,*6A
1513796574.94,41907,6.81,73410.3,-15.09,-15.95,-15.95,0,*66
1513796576.18,41908,6.81,73406.8,-15.09,-15.95,-15.95,0,*69
1513796577.44,41909,6.81,73410.5,-15.09,-15.99,-15.85,0,*65
1513796578.71,41910,6.81,73402.3,-15.09,-15.85,-15.71,0,*6B
1513796580.01,41911,6.88,73412.8,-15.09,-15.85,-15.85,0,*61
1513796581.28,41912,6.81,73406.5,-15.07,-15.89,-15.81,0,*64
1513796582.54,41913,6.81,73408.3,-15.07,-15.85,-15.85,0,*6D
1513796583.81,41914,6.81,73408.5,-15.09,-15.95,-15.85,0,*65
1513796585.11,41915,6.81,73406.8,-15.09,-15.85,-15.85,0,*65
1513796586.4,41916,6.88,73404.3,-15.09,-15.85,-15.85,0,*66
1513796587.7,41917,6.88,73406.8,-15.09,-15.81,-15.85,0,*63
1513796588.97,41918,6.81,73394.5,-15.07,-15.85,-15.81,0,*62
1513796590.2,41919,6.81,73396.3,-15.07,-15.81,-15.75,0,*6C
1513796591.5,41920,6.88,73404.8,-15.09,-15.85,-15.81,0,*67
1513796592.74,41921,6.88,73392.8,-15.07,-15.89,-15.75,0,*6F
1513796594.04,41922,6.81,73396.0,-15.09,-15.85,-15.85,0,*61
1513796595.28,41923,6.81,73400.8,-15.09,-15.95,-15.95,0,*60
1513796596.55,41924,6.88,73414.0,-15.09,-15.95,-15.85,0,*66
1513796597.82,41925,6.88,73414.8,-15.09,-15.95,-15.85,0,*67
1513796599.12,41926,6.81,73394.5,-15.09,-15.81,-15.81,0,*65
1513796600.36,41927,6.81,73386.0,-15.07,-15.75,-15.81,0,*61
1513796601.66,41928,6.81,73394.5,-15.09,-15.85,-15.81,0,*6F
1513796602.93,41929,6.81,73402.3,-15.09,-15.95,-15.81,0,*6F
1513796604.17,41930,6.81,73404.3,-15.07,-15.81,-15.75,0,*67
1513796605.47,41931,6.81,73414.5,-15.09,-15.85,-15.81,0,*67
1513796606.74,41932,6.88,73402.0,-15.09,-15.81,-15.71,0,*6F
1513796607.97,41933,6.81,73406.5,-15.07,-15.81,-15.67,0,*67
1513796609.27,41934,6.81,73400.5,-15.09,-15.85,-15.81,0,*62
1513796610.56,41935,6.81,73402.0,-15.09,-15.81,-15.85,0,*63
1513796611.85,41936,6.88,73408.5,-15.09,-15.81,-15.81,0,*64
1513796613.15,41937,6.81,73408.5,-15.09,-15.85,-15.81,0,*61
1513796614.42,41938,6.81,73398.0,-15.09,-15.85,-15.67,0,*66
1513796615.63,41939,6.81,73392.5,-15.07,-15.75,-15.67,0,*66
1513796616.89,41940,6.81,73394.0,-15.07,-15.81,-15.81,0,*6B
1513796618.19,41941,6.81,73392.3,-15.09,-15.85,-15.85,0,*64
1513796619.48,41942,6.81,73400.8,-15.09,-15.85,-15.85,0,*67
1513796620.78,41943,6.81,73392.8,-15.09,-15.85,-15.81,0,*62
1513796622.02,41944,6.88,73394.8,-15.07,-15.89,-15.75,0,*6C
1513796623.32,41945,6.81,73398.0,-15.09,-15.85,-15.85,0,*60
1513796624.57,41946,6.81,73398.5,-15.09,-15.95,-15.95,0,*63
1513796625.81,41947,6.81,73406.8,-15.07,-15.89,-15.95,0,*61
1513796627.02,41948,6.88,73408.8,-15.07,-15.99,-15.95,0,*6F
1513796628.28,41949,6.81,73412.0,-15.07,-15.85,-15.85,0,*62
1513796629.52,41950,6.81,73416.0,-15.07,-15.81,-15.75,0,*61
1513796630.77,41951,6.81,73394.0,-15.07,-15.75,-15.81,0,*60
1513796632.01,41952,6.81,73408.0,-15.07,-15.67,-15.81,0,*60
1513796633.27,41953,6.81,73404.5,-15.07,-15.81,-15.81,0,*69
1513796634.51,41954,6.88,73390.3,-15.07,-15.95,-15.89,0,*63
1513796635.75,41955,6.81,73408.3,-15.09,-15.95,-15.95,0,*61
1513796637.02,41956,6.81,73396.5,-15.07,-15.85,-15.81,0,*68
1513796638.26,41957,6.81,73388.8,-15.07,-15.81,-15.75,0,*66
1513796639.52,41958,6.81,73390.3,-15.07,-15.81,-15.89,0,*6A
1513796640.76,41959,6.88,73388.5,-15.09,-15.99,-15.95,0,*61
1513796642.03,41960,6.81,73400.5,-15.09,-15.95,-15.85,0,*66
1513796643.3,41961,6.81,73408.0,-15.09,-15.95,-15.81,0,*63
1513796644.54,41962,6.88,73410.8,-15.07,-15.81,-15.75,0,*60
1513796645.81,41963,6.81,73414.8,-15.07,-15.89,-15.81,0,*62
1513796647.11,41964,6.81,73410.5,-15.09,-15.85,-15.85,0,*63
1513796648.35,41965,6.81,73410.8,-15.09,-15.95,-15.95,0,*62
1513796649.62,41966,6.88,73404.5,-15.07,-15.89,-15.81,0,*67
1513796650.89,41967,6.81,73400.8,-15.07,-15.81,-15.81,0,*6E
1513796652.18,41968,6.81,73398.3,-15.09,-15.85,-15.85,0,*6F
1513796653.45,41969,6.81,73416.0,-15.07,-15.81,-15.81,0,*60
1513796654.71,41970,6.81,73424.8,-15.09,-15.95,-15.85,0,*67
1513796655.98,41971,6.88,73416.8,-15.07,-15.89,-15.81,0,*61
1513796657.25,41972,6.81,73402.5,-15.07,-15.89,-15.81,0,*62
1513796658.52,41973,6.81,73402.5,-15.07,-15.81,-15.81,0,*6B
1513796659.75,41974,6.81,73410.3,-15.07,-15.81,-15.95,0,*69
1513796661.02,41975,6.81,73404.3,-15.07,-15.81,-15.89,0,*65
1513796662.26,41976,6.88,73414.8,-15.07,-15.95,-15.81,0,*6B
1513796663.55,41977,6.81,73404.5,-15.09,-15.85,-15.85,0,*61
1513796664.82,41978,6.81,73406.3,-15.09,-15.99,-15.85,0,*63
1513796666.08,41979,6.81,73410.5,-15.09,-15.99,-15.85,0,*62
1513796667.35,41980,6.81,73414.8,-15.07,-15.89,-15.81,0,*6F
1513796668.59,41981,6.81,73418.5,-15.07,-15.89,-15.75,0,*65
1513796669.86,41982,6.88,73422.3,-15.09,-15.95,-15.81,0,*6E
1513796671.13,41983,6.81,73428.0,-15.07,-15.89,-15.81,0,*6C
1513796672.35,41984,6.81,73420.3,-15.07,-15.75,-15.75,0,*63
1513796673.64,41985,6.81,73426.3,-15.09,-15.85,-15.85,0,*6C
1513796674.89,41986,6.81,73426.5,-15.07,-15.95,-15.81,0,*64
1513796676.16,41987,6.81,73414.0,-15.07,-15.89,-15.81,0,*68
1513796677.4,41988,6.81,73396.5,-15.07,-15.95,-15.81,0,*6A
1513796678.64,41989,6.81,73402.0,-15.07,-15.81,-15.75,0,*65
1513796679.93,41990,6.81,73398.3,-15.09,-15.81,-15.81,0,*68
1513796681.2,41991,6.81,73362.3,-15.09,-15.95,-15.85,0,*68
1513796682.44,41992,6.81,73412.0,-15.07,-15.95,-15.89,0,*69
1513796683.68,41993,6.88,73416.8,-15.07,-15.95,-15.89,0,*68
1513796684.89,41994,6.81,73412.5,-15.07,-15.95,-15.95,0,*62
1513796686.13,41995,6.81,73408.8,-15.07,-15.95,-15.89,0,*6E
1513796687.37,41996,6.81,73414.5,-15.07,-15.95,-15.89,0,*6D
1513796688.61,41997,6.81,73406.5,-15.07,-15.95,-15.89,0,*6C
1513796689.85,41998,6.88,73404.5,-15.07,-15.95,-15.89,0,*63
1513796691.08,41999,6.81,73412.3,-15.09,-15.99,-15.99,0,*61
1513796692.29,42000,6.81,73412.3,-15.07,-15.99,-15.95,0,*69
1513796693.5,42001,6.88,73396.8,-15.07,-15.99,-15.95,0,*68
1513796694.71,42002,6.81,73406.0,-15.07,-15.95,-15.95,0,*67
1513796695.94,42003,6.88,73412.8,-15.07,-15.99,-15.89,0,*67
1513796697.15,42004,6.81,73412.3,-15.07,-15.99,-15.95,0,*6D
1513796698.36,42005,6.81,73408.3,-15.07,-15.99,-15.95,0,*6C
1513796699.63,42006,6.81,73388.5,-15.09,-16.03,-15.85,0,*60
1513796700.86,42007,6.81,73378.3,-15.07,-15.99,-15.89,0,*63
1513796702.1,42008,6.81,73382.0,-15.07,-15.95,-15.89,0,*60
1513796703.32,42009,6.81,73380.8,-15.07,-15.95,-15.95,0,*6C
1513796704.56,42010,6.88,73388.8,-15.09,-16.03,-15.95,0,*66
1513796705.8,42011,6.81,73400.8,-15.09,-16.03,-15.95,0,*67
1513796707.07,42012,6.81,73388.5,-15.07,-15.89,-15.81,0,*6E
1513796708.34,42013,6.81,73368.5,-15.07,-15.81,-15.81,0,*67
1513796709.55,42014,6.81,73370.3,-15.07,-15.95,-15.95,0,*60
1513796710.79,42015,6.81,73374.3,-15.07,-15.95,-15.89,0,*6C
1513796712.03,42016,6.81,73400.3,-15.07,-15.95,-15.81,0,*67
1513796713.3,42017,6.88,73396.3,-15.09,-15.95,-15.85,0,*6C
1513796714.54,42018,6.81,73398.0,-15.07,-15.81,-15.75,0,*67
1513796715.76,42019,6.88,73404.5,-15.07,-15.75,-15.67,0,*6E
1513796716.99,42020,6.81,73390.5,-15.07,-15.81,-15.75,0,*6C
1513796718.26,42021,6.88,73386.0,-15.07,-15.81,-15.81,0,*66
1513796719.55,42022,6.81,73382.8,-15.09,-15.81,-15.85,0,*6F
1513796720.82,42023,6.88,73392.3,-15.07,-15.89,-15.81,0,*6C
1513796722.09,42024,6.81,73386.3,-15.07,-15.81,-15.81,0,*63
1513796723.35,42025,6.81,73390.0,-15.09,-15.81,-15.71,0,*63
1513796724.59,42026,6.88,73416.0,-15.07,-15.81,-15.75,0,*6A
1513796725.86,42027,6.81,73402.5,-15.09,-15.95,-15.85,0,*6F
1513796727.07,42028,6.81,73372.5,-15.07,-15.99,-15.95,0,*63
1513796728.33,42029,6.81,73400.5,-15.07,-15.81,-15.89,0,*66
1513796729.55,42030,6.81,73398.0,-15.07,-15.75,-15.75,0,*66
1513796730.81,42031,6.81,73392.5,-15.07,-15.81,-15.81,0,*67
1513796732.08,42032,6.81,73384.0,-15.07,-15.89,-15.81,0,*6C
1513796733.35,42033,6.81,73392.5,-15.07,-15.89,-15.81,0,*6D
1513796734.62,42034,6.81,73406.0,-15.07,-15.89,-15.89,0,*62
1513796735.89,42035,6.81,73380.8,-15.07,-15.89,-15.81,0,*6B
1513796737.13,42036,6.81,73394.0,-15.07,-15.89,-15.75,0,*63
1513796738.37,42037,6.88,73390.0,-15.07,-15.89,-15.75,0,*62
1513796739.59,42038,6.81,73392.3,-15.07,-15.95,-15.75,0,*60
1513796740.83,42039,6.81,73400.3,-15.07,-15.89,-15.75,0,*6C
1513796742.07,42040,6.81,73400.0,-15.07,-15.89,-15.75,0,*62
1513796743.31,42041,6.81,73412.5,-15.07,-15.81,-15.75,0,*6B
1513796744.55,42042,6.88,73402.8,-15.07,-15.81,-15.75,0,*68
1513796745.81,42043,6.81,73390.5,-15.07,-15.81,-15.81,0,*62
1513796747.08,42044,6.81,73394.5,-15.07,-15.81,-15.81,0,*65
1513796748.35,42045,6.88,73390.3,-15.07,-15.89,-15.81,0,*6C
1513796749.62,42046,6.81,73390.0,-15.07,-15.89,-15.81,0,*6F
1513796750.86,42047,6.81,73398.5,-15.07,-15.95,-15.89,0,*6B
1513796752.12,42048,6.81,73390.8,-15.07,-15.89,-15.89,0,*69
1513796753.39,42049,6.81,73394.0,-15.07,-15.89,-15.81,0,*60
1513796754.63,42050,6.81,73396.8,-15.07,-15.89,-15.75,0,*63
1513796755.9,42051,6.81,73402.0,-15.07,-15.89,-15.81,0,*69
1513796757.17,42052,6.81,73398.5,-15.07,-15.89,-15.81,0,*6A
1513796758.46,42053,6.81,73406.5,-15.09,-15.85,-15.85,0,*6D
1513796759.73,42054,6.88,73404.3,-15.07,-15.89,-15.81,0,*6C
1513796761.0,42055,6.81,73400.0,-15.07,-15.89,-15.81,0,*6D
1513796762.24,42056,6.81,73396.3,-15.07,-15.95,-15.89,0,*6B
1513796763.45,42057,6.88,73396.5,-15.07,-15.95,-15.95,0,*67
1513796764.69,42058,6.88,73400.0,-15.07,-15.95,-15.89,0,*65
1513796765.94,42059,6.81,73400.3,-15.05,-15.95,-15.95,0,*6B
1513796767.18,42060,6.81,73396.0,-15.05,-15.95,-15.95,0,*61
1513796768.48,42061,6.88,73398.8,-15.05,-15.89,-15.89,0,*60
1513796769.72,42062,6.81,73394.0,-15.05,-15.95,-15.95,0,*63
1513796770.96,42063,6.81,73398.3,-15.05,-15.99,-15.95,0,*6E
1513796772.2,42064,6.81,73406.8,-15.05,-15.99,-15.95,0,*69
1513796773.44,42065,6.88,73410.3,-15.05,-15.99,-15.95,0,*68
1513796774.67,42066,6.81,73402.8,-15.05,-15.99,-15.99,0,*67
1513796775.94,42067,6.88,73410.8,-15.05,-15.99,-16.09,0,*6C
1513796777.15,42068,6.81,73404.5,-15.03,-15.99,-15.95,0,*63
1513796778.39,42069,6.81,73406.0,-15.03,-15.95,-15.89,0,*63
1513796779.63,42070,6.88,73418.0,-15.05,-15.95,-15.95,0,*60
1513796780.88,42071,6.81,73416.5,-15.05,-15.95,-15.95,0,*61
1513796782.12,42072,6.81,73420.0,-15.05,-15.95,-15.95,0,*62
1513796783.39,42073,6.81,73418.0,-15.05,-15.95,-15.89,0,*6E
1513796784.65,42074,6.88,73420.0,-15.05,-15.99,-15.89,0,*65
1513796785.86,42075,6.88,73426.8,-15.03,-15.99,-15.95,0,*6F
1513796787.12,42076,6.88,73418.0,-15.05,-15.99,-15.89,0,*67
1513796788.37,42077,6.81,73416.3,-15.05,-15.95,-15.95,0,*67
1513796789.61,42078,6.88,73418.5,-15.05,-15.95,-15.95,0,*68
1513796790.89,42079,6.81,73416.8,-15.05,-15.89,-15.95,0,*64
1513796792.15,42080,6.81,73408.8,-15.05,-15.95,-15.89,0,*62
1513796793.4,42081,6.81,73416.0,-15.03,-15.95,-15.89,0,*65
1513796794.66,42082,6.81,73430.5,-15.05,-15.95,-15.89,0,*60
1513796795.91,42083,6.81,73424.3,-15.05,-15.95,-15.95,0,*6C
1513796797.12,42084,6.81,73414.3,-15.07,-15.99,-15.95,0,*65
1513796798.36,42085,6.81,73410.8,-15.05,-15.99,-15.95,0,*66
1513796799.59,42086,6.81,73422.3,-15.05,-15.99,-15.95,0,*65
1513796800.85,42087,6.81,73428.0,-15.05,-15.99,-15.89,0,*69
1513796802.06,42088,6.88,73420.5,-15.03,-15.99,-15.95,0,*6D
1513796803.3,42089,6.81,73412.3,-15.05,-15.99,-15.95,0,*6A
1513796804.54,42090,6.81,73408.8,-15.05,-15.99,-15.95,0,*62
1513796805.81,42091,6.81,73414.0,-15.05,-15.95,-15.89,0,*62
1513796807.05,42092,6.81,73408.5,-15.05,-15.99,-15.95,0,*60
1513796808.29,42093,6.81,73422.5,-15.05,-15.99,-15.95,0,*61
1513796809.53,42094,6.81,73420.5,-15.05,-15.99,-15.95,0,*66
1513796810.79,42095,6.81,73420.5,-15.05,-15.95,-15.89,0,*66
1513796812.03,42096,6.81,73414.5,-15.05,-15.99,-15.95,0,*64
1513796813.3,42097,6.88,73418.0,-15.03,-15.89,-15.89,0,*6F
1513796814.57,42098,6.81,73418.3,-15.05,-15.89,-15.95,0,*6B
1513796815.87,42099,6.81,73414.3,-15.05,-15.89,-15.89,0,*67
1513796817.14,42100,6.81,73420.8,-15.05,-15.95,-15.81,0,*63
1513796818.41,42101,6.81,73406.8,-15.05,-15.95,-15.81,0,*62
1513796819.68,42102,6.81,73410.3,-15.05,-15.95,-15.81,0,*61
1513796820.97,42103,6.81,73408.5,-15.05,-15.81,-15.89,0,*6D
1513796822.24,42104,6.81,73410.8,-15.03,-15.89,-15.81,0,*6C
1513796823.54,42105,6.81,73424.5,-15.05,-15.81,-15.81,0,*63
1513796824.84,42106,6.81,73404.3,-15.05,-15.89,-15.81,0,*68
1513796826.05,42107,6.81,73426.0,-15.03,-15.95,-15.95,0,*67
1513796827.32,42108,6.81,73418.8,-15.05,-15.89,-15.95,0,*63
1513796828.57,42109,6.81,73384.5,-15.05,-15.95,-15.95,0,*6F
1513796829.82,42110,6.88,73356.5,-15.03,-16.09,-15.95,0,*67
1513796831.09,42111,6.81,73414.0,-15.05,-16.09,-15.99,0,*6C
1513796832.33,42112,6.81,73408.8,-15.05,-15.99,-15.95,0,*69
1513796833.56,42113,6.81,73406.5,-15.05,-15.99,-15.95,0,*68
1513796834.84,42114,6.88,73400.3,-15.05,-16.09,-15.95,0,*65
1513796836.11,42115,6.81,73410.3,-15.05,-15.89,-15.95,0,*6F
1513796837.41,42116,6.81,73400.8,-15.05,-15.89,-15.89,0,*61
1513796838.67,42117,6.81,73380.0,-15.05,-15.81,-15.95,0,*65
1513796839.92,42118,6.81,73390.8,-15.05,-15.95,-15.95,0,*6F
1513796841.19,42119,6.81,73412.5,-15.05,-15.95,-15.89,0,*63
1513796842.43,42120,6.81,73402.5,-15.03,-15.95,-15.81,0,*67
1513796843.7,42121,6.81,73394.0,-15.05,-15.95,-15.89,0,*68
1513796844.99,42122,6.81,73402.5,-15.05,-15.89,-15.89,0,*66
1513796846.24,42123,6.81,73368.3,-15.05,-15.95,-15.95,0,*67
1513796847.48,42124,6.81,73412.5,-15.05,-15.99,-15.95,0,*6C
1513796848.72,42125,6.81,73402.5,-15.05,-15.99,-15.95,0,*6D
1513796849.96,42126,6.81,73408.0,-15.05,-15.95,-15.95,0,*62
1513796851.23,42127,6.81,73396.3,-15.05,-15.89,-15.95,0,*6E
1513796852.48,42128,6.81,73412.5,-15.05,-15.95,-15.95,0,*6C
1513796853.72,42129,6.81,73402.5,-15.05,-15.95,-15.95,0,*6D
1513796854.97,42130,6.81,73400.3,-15.05,-15.95,-15.95,0,*65
1513796856.24,42131,6.88,73412.0,-15.05,-15.89,-15.95,0,*69
1513796857.51,42132,6.81,73404.5,-15.05,-15.95,-15.89,0,*6A
1513796858.75,42133,6.88,73412.8,-15.05,-15.95,-15.95,0,*66
1513796860.02,42134,6.81,73412.5,-15.05,-15.95,-15.89,0,*6C
1513796861.29,42135,6.81,73416.8,-15.05,-15.95,-15.81,0,*65
1513796862.59,42136,6.81,73416.3,-15.05,-15.89,-15.81,0,*6B
1513796863.89,42137,6.81,73422.3,-15.05,-15.89,-15.81,0,*6A
1513796865.13,42138,6.81,73422.8,-15.07,-15.95,-15.89,0,*62
1513796866.39,42139,6.81,73410.5,-15.07,-15.89,-15.81,0,*66
1513796867.66,42140,6.81,73422.3,-15.07,-15.89,-15.81,0,*68
1513796868.93,42141,6.81,73404.8,-15.07,-15.89,-15.81,0,*69
1513796870.23,42142,6.81,73410.0,-15.05,-15.89,-15.89,0,*60
1513796871.52,42143,6.81,73412.3,-15.05,-15.89,-15.89,0,*61
1513796872.82,42144,6.81,73416.5,-15.05,-15.89,-15.81,0,*6E
1513796874.06,42145,6.81,73418.8,-15.07,-15.95,-15.81,0,*60
1513796875.33,42146,6.88,73424.8,-15.07,-15.89,-15.81,0,*6E
1513796876.62,42147,6.81,73420.0,-15.05,-15.81,-15.81,0,*65
1513796877.87,42148,6.81,73416.0,-15.03,-15.89,-15.75,0,*6F
1513796879.14,42149,6.88,73420.3,-15.03,-15.89,-15.81,0,*65
1513796880.43,42150,6.81,73418.0,-15.05,-15.81,-15.81,0,*63
1513796881.73,42151,6.88,73424.0,-15.05,-15.89,-15.81,0,*6A
1513796882.98,42152,6.81,73426.5,-15.03,-15.95,-15.81,0,*62
1513796884.22,42153,6.81,73420.5,-15.05,-15.95,-15.95,0,*60
1513796885.44,42154,6.88,73422.5,-15.03,-15.95,-15.95,0,*61
1513796886.71,42155,6.81,73422.8,-15.05,-15.95,-15.81,0,*63
1513796887.95,42156,6.88,73424.8,-15.03,-15.95,-15.89,0,*6E
1513796889.25,42157,6.81,73426.0,-15.05,-15.89,-15.89,0,*64
1513796890.49,42158,6.88,73424.0,-15.05,-15.95,-15.95,0,*6B
1513796891.74,42159,6.81,73420.3,-15.05,-15.95,-15.95,0,*6A
1513796893.0,42160,6.81,73428.0,-15.05,-15.95,-15.89,0,*6D
1513796894.28,42161,6.81,73430.5,-15.05,-15.89,-15.75,0,*62
1513796895.52,42162,6.81,73426.0,-15.03,-15.89,-15.95,0,*69
1513796896.76,42163,6.81,73436.8,-15.03,-15.95,-15.89,0,*68
1513796898.03,42164,6.81,73432.8,-15.05,-15.95,-15.89,0,*69
1513796899.27,42165,6.81,73428.5,-15.05,-15.95,-15.95,0,*65
1513796900.52,42166,6.81,73430.3,-15.05,-15.95,-15.95,0,*66